RH
7 6 7 10 12 11 13 20 22 17 18 16 17 18 18 18 18 19 41 90 100 100 100 100 100 100 100 99 93 100 100 100 100 100 100 100 98 89 90 90 87 84 86 84
9 8 8 9 11 12 14 17 20 21 17 16 16 16 18 17 17 17 18 38 69 100 100 100 100 100 100 100 100 90 91 100 100 100 100 100 100 100 100 100 91 88 87 89
9 10 10 10 12 13 13 14 17 21 20 16 18 16 16 18 18 18 17 19 29 60 93 100 100 100 100 100 100 100 100 100 100 96 96 100 100 100 100 100 100 99 97 97
10 12 11 11 12 13 15 14 15 14 16 18 17 18 18 16 16 16 17 17 20 22 67 100 100 100 100 100 100 100 99 100 100 100 100 100 100 100 100 100 100 100 100 100
8 11 13 12 12 14 17 15 14 14 13 14 16 19 20 18 16 17 16 17 18 20 21 73 100 99 100 100 100 100 100 100 100 100 90 80 82 87 96 100 100 100 100 100
9 10 14 12 13 14 16 18 16 15 14 14 15 18 22 19 18 16 14 15 17 19 21 22 75 100 100 100 100 100 100 100 100 100 100 94 80 75 78 89 100 100 100 100
5 9 18 15 15 15 18 17 16 16 16 17 16 16 21 20 18 16 14 13 15 18 21 22 24 90 100 100 100 100 100 100 100 100 100 100 100 100 100 100 100 100 100 100
7 10 15 19 17 16 17 18 17 19 21 19 17 17 19 18 20 18 18 15 14 15 18 20 26 30 98 100 100 100 100 100 100 100 100 100 100 100 100 100 100 100 100 100
8 12 18 20 18 16 15 16 17 19 21 19 17 17 16 20 20 22 21 21 19 17 16 20 22 30 35 99 100 100 100 100 100 100 100 100 100 100 99 99 97 100 100 100
8 12 17 20 19 18 16 15 16 17 19 18 18 20 19 19 20 20 23 24 22 22 19 18 20 28 48 59 95 100 100 100 100 100 100 100 100 100 100 100 99 98 100 100
10 11 15 20 23 22 18 16 17 19 20 20 19 20 19 22 22 22 24 27 24 24 24 21 20 20 30 44 46 75 100 100 100 100 100 100 100 100 100 100 100 100 100 100
10 15 20 20 21 22 22 19 18 18 18 17 18 20 18 21 24 26 25 28 29 26 24 27 24 22 20 21 34 44 62 73 78 97 100 100 100 100 100 100 100 100 100 100
10 12 18 24 28 28 30 26 22 21 20 21 20 22 21 20 23 24 25 25 26 26 25 24 25 25 23 21 20 18 34 56 51 46 60 83 91 98 100 100 100 100 100 100
10 10 13 17 20 27 28 29 29 30 31 28 29 24 22 20 18 22 26 29 30 29 28 25 24 24 23 21 22 27 22 19 25 35 44 45 54 66 77 93 100 100 100 100
12 11 12 15 19 25 26 26 24 26 27 28 30 26 24 17 17 20 24 27 28 28 25 24 24 23 23 22 21 20 21 24 28 26 22 23 26 27 32 40 46 58 73 80
12 15 13 13 18 20 26 27 27 26 24 30 26 28 29 13 12 17 21 23 24 24 22 22 22 22 22 21 20 21 21 21 20 21 21 22 26 32 46 41 48 57 53 64
9 10 16 16 15 16 19 20 23 26 26 26 30 42 20 18 13 14 17 21 23 22 23 25 25 24 24 23 22 21 22 22 20 21 22 26 26 25 37 35 35 33 36 43
11 10 10 15 18 17 16 16 16 18 23 29 34 34 34 27 20 22 22 19 18 19 22 23 25 27 27 25 24 24 26 29 29 27 27 26 34 39 47 42 40 40 44 45
11 12 13 12 20 21 19 18 21 20 20 19 20 24 31 34 29 22 21 24 24 25 27 28 28 28 28 29 29 28 28 27 22 20 20 21 24 27 25 24 25 26 31 35
12 12 15 15 17 18 19 26 25 24 25 26 23 22 22 24 23 22 27 28 27 27 27 27 27 27 27 28 28 28 26 24 23 23 24 25 27 26 26 25 24 24 26 26
12 13 15 17 18 19 22 30 33 39 32 27 25 24 24 25 26 25 27 24 25 26 27 27 28 26 26 27 28 27 25 25 27 27 27 28 26 26 26 27 28 27 28 29
12 12 14 18 23 18 24 32 34 38 40 46 39 30 29 28 27 27 32 35 33 34 35 36 36 29 31 30 27 26 27 28 28 28 29 29 29 28 26 27 28 28 29 30
13 12 12 13 17 24 23 28 33 35 35 38 47 55 51 43 35 32 31 34 37 37 39 40 36 37 42 42 43 40 38 33 43 39 33 30 29 26 26 27 28 30 31 36
14 14 13 13 14 19 27 25 27 28 34 37 37 50 66 69 69 64 50 37 37 43 44 44 49 54 51 53 58 58 54 52 47 52 53 55 54 45 37 32 31 37 38 46
14 13 13 14 13 19 20 24 28 30 32 36 34 34 43 54 65 70 70 70 69 58 46 46 52 53 53 53 56 58 59 59 60 58 57 59 70 68 63 59 57 55 57 60
16 12 12 12 12 15 18 21 20 22 26 30 31 32 35 36 40 52 61 69 72 76 77 71 63 56 58 59 60 59 60 54 53 53 56 60 73 79 77 76 73 69 69 72
Wind_Speed
75 76 79 83 87 88 87 94 96 97 99 101 100 104 106 105 102 100 100 102 102 101 99 95 90 85 82 80 79 74 73 66 60 62 63 66 66 64 65 64 62 62 63 63
70 75 75 81 84 85 86 90 95 99 100 101 101 99 99 102 102 101 101 101 104 104 101 99 94 90 87 84 83 80 74 64 60 62 63 65 65 67 70 69 67 67 68 68
65 68 73 77 80 82 84 86 91 97 99 99 99 99 98 99 100 104 101 98 101 101 103 103 99 95 91 88 86 83 80 77 77 71 66 64 65 66 68 70 71 72 72 70
63 69 70 71 76 79 81 84 88 91 93 97 99 97 98 101 100 99 101 101 97 99 102 104 103 99 96 94 91 88 85 84 82 80 79 76 73 73 71 71 71 69 70 71
58 62 67 70 72 74 74 79 83 86 86 88 93 95 96 99 100 98 98 99 100 99 99 102 105 104 99 96 95 93 89 88 88 88 87 86 84 83 80 75 73 73 72 71
54 60 62 65 67 68 74 76 78 79 81 82 86 91 98 99 100 99 96 95 96 96 97 98 103 106 106 102 98 96 95 92 92 91 90 88 87 85 83 82 82 82 81 81
44 48 56 62 66 70 71 73 73 74 76 76 78 83 98 98 98 98 97 94 92 96 98 99 100 106 108 107 105 102 98 96 93 92 91 89 87 86 85 86 85 84 84 83
37 46 51 55 60 65 68 69 68 68 70 74 75 78 86 94 97 98 95 94 94 95 97 99 101 103 109 111 109 106 103 99 97 96 95 93 91 90 89 89 88 88 86 84
27 35 43 50 57 59 60 63 64 65 69 74 72 75 78 85 90 97 96 95 94 95 96 97 100 103 105 112 112 109 107 105 103 101 99 97 95 94 93 92 90 90 89 88
27 34 39 44 49 54 56 60 64 66 68 69 68 72 71 78 83 87 93 98 98 98 98 100 100 102 105 107 112 113 112 110 108 106 104 102 99 98 97 96 95 94 94 94
18 27 35 38 43 49 54 56 59 63 64 65 66 69 68 72 76 80 84 90 94 96 98 100 101 102 104 107 108 109 112 114 113 112 110 109 107 105 103 101 99 98 99 99
18 25 26 32 39 44 49 54 57 59 61 64 65 66 67 68 73 77 82 85 91 92 95 96 97 100 102 104 107 109 109 109 109 110 112 113 112 111 109 108 105 104 104 103
11 23 29 34 38 41 46 51 55 58 61 61 64 65 67 68 72 74 77 81 85 89 90 91 94 97 99 100 101 102 105 107 107 106 107 109 111 112 114 113 112 110 108 108
12 16 27 33 38 41 46 51 54 54 54 60 59 66 71 71 71 70 72 76 80 85 89 89 91 93 96 94 95 97 98 99 102 104 104 105 106 108 111 114 116 117 115 114
12 15 21 28 36 40 46 50 55 57 62 59 65 64 72 74 70 68 72 75 80 83 86 87 88 89 90 89 90 92 92 95 97 97 97 98 99 100 98 100 102 101 102 105
13 15 20 25 31 37 43 46 52 55 59 59 65 62 73 74 68 68 70 75 75 78 80 82 84 86 86 85 85 86 88 89 88 88 87 88 90 91 87 91 92 91 94 93
14 15 18 23 27 32 38 41 43 50 55 59 61 68 70 71 67 65 67 69 72 74 73 76 79 80 81 81 80 80 79 79 79 80 82 81 79 77 77 82 85 93 94 94
17 17 17 19 24 28 31 31 36 39 44 48 54 60 64 67 64 62 65 65 66 67 69 73 75 76 78 79 78 78 77 79 82 81 82 78 75 76 78 79 80 82 86 85
21 20 21 21 21 25 24 27 29 31 32 37 43 48 53 56 58 62 59 59 60 61 64 66 68 71 73 75 77 77 77 78 77 74 71 69 70 73 76 77 78 79 78 78
24 23 23 23 24 25 24 24 27 29 31 35 36 38 40 43 49 49 51 55 55 56 59 61 64 65 66 68 69 70 72 72 72 69 68 67 68 69 70 70 71 70 70 71
26 27 28 26 27 29 25 26 26 28 32 32 34 35 36 36 38 35 37 41 42 45 48 52 55 59 61 63 66 67 66 65 65 65 64 64 63 63 63 62 62 62 63 65
28 26 28 29 30 32 29 30 30 30 32 32 32 32 34 35 36 35 33 35 36 37 39 40 41 44 47 51 55 57 59 60 61 62 62 62 63 64 63 61 61 62 63 65
38 30 28 30 32 34 35 33 34 34 33 33 33 33 32 33 34 35 34 37 37 37 38 38 39 39 41 43 44 45 46 47 47 50 53 56 57 59 59 58 58 59 59 58
39 36 33 33 30 32 38 38 36 36 36 36 37 36 37 35 34 34 34 36 38 39 40 41 41 40 40 41 42 43 43 43 44 45 46 46 46 49 51 53 55 56 56 56
40 36 33 35 34 33 38 40 40 39 39 39 40 40 41 40 39 38 37 36 36 38 40 40 41 43 43 43 43 43 44 46 46 46 45 44 44 45 47 47 47 48 50 52
44 40 37 36 33 34 39 41 43 43 42 42 42 42 44 44 43 42 41 40 39 39 40 40 41 42 43 43 43 44 46 46 47 47 46 44 43 44 44 45 47 46 46 46
Wind_Direction
204 205 205 207 209 211 212 215 214 214 215 217 215 217 218 220 220 222 222 224 225 227 228 230 231 232 234 234 232 233 237 242 241 243 248 251 251 254 255 257 259 262 265 268
201 202 204 206 208 209 211 214 217 215 216 217 219 218 219 221 220 222 222 222 225 225 228 230 231 232 233 235 235 235 232 236 238 243 247 250 253 254 255 257 259 261 263 267
200 199 201 205 208 209 212 213 216 219 218 218 220 221 220 222 221 222 222 223 224 226 228 229 230 230 232 234 237 236 236 237 240 241 245 250 251 254 257 258 259 261 263 266
196 196 200 204 207 208 212 213 217 219 220 219 220 222 222 222 223 223 224 223 224 225 227 229 229 229 232 234 236 238 238 240 242 243 246 248 250 253 256 258 261 264 266 269
196 197 198 201 205 207 211 215 217 220 221 221 221 221 225 225 225 225 224 223 224 225 226 228 230 230 230 233 236 237 239 240 241 244 244 245 247 249 252 256 259 263 267 269
193 196 198 200 205 207 211 214 217 220 222 223 222 220 225 226 226 226 226 225 225 226 228 229 230 232 232 232 235 237 238 240 242 245 247 249 251 253 255 257 259 262 266 269
195 186 195 199 203 207 210 215 217 220 223 224 225 223 225 227 229 229 228 227 226 227 228 230 231 231 233 234 234 235 238 240 242 245 248 250 252 254 256 259 260 263 265 267
189 192 195 200 205 207 209 214 217 219 223 227 226 225 226 228 228 231 232 232 230 229 230 230 232 232 232 234 236 236 237 239 241 244 247 248 250 252 254 256 259 262 265 268
181 187 196 201 206 208 212 215 217 219 223 227 226 227 227 228 230 231 232 233 233 233 232 233 233 235 234 234 235 238 239 239 240 242 245 247 249 252 254 256 259 262 264 266
178 186 194 202 207 209 212 214 216 219 222 227 227 229 226 229 230 231 232 233 233 235 235 235 233 235 236 236 236 238 239 241 243 244 245 247 249 251 253 256 258 260 263 265
172 187 195 200 206 211 214 214 217 221 223 226 229 231 228 229 231 232 232 234 235 234 238 238 238 236 237 238 239 239 240 242 244 246 247 248 249 251 253 254 257 259 261 263
191 184 194 203 210 212 215 216 219 223 225 228 230 232 232 229 230 232 233 233 237 236 236 238 241 241 241 239 240 242 242 243 244 246 248 249 251 253 254 256 257 258 260 262
224 205 198 201 206 208 212 217 220 221 225 227 229 232 233 230 231 232 234 235 235 238 239 239 240 242 243 245 245 243 242 245 247 248 249 250 252 254 256 257 258 259 261 263
265 236 215 214 216 214 214 214 217 221 225 227 229 232 236 234 231 233 233 235 237 238 240 241 241 243 246 246 246 248 250 248 247 247 249 251 252 254 256 257 258 258 260 263
274 255 241 228 222 220 221 221 222 221 224 226 230 231 236 236 234 233 235 235 236 238 241 242 244 246 248 248 249 250 251 252 253 253 253 252 253 254 257 256 257 260 262 263
281 258 250 241 233 231 230 230 229 227 229 228 234 234 238 241 239 236 237 239 240 243 244 245 246 247 249 251 252 252 252 254 255 256 256 257 258 259 261 259 259 262 261 264
290 270 262 249 240 240 238 240 241 239 237 235 234 236 243 246 246 244 243 243 244 246 247 249 250 251 252 254 255 255 255 257 258 258 259 257 255 255 258 257 258 258 259 260
295 281 268 259 254 244 243 239 239 241 242 241 241 244 247 251 253 251 250 249 250 250 250 251 252 253 253 254 256 256 257 261 263 261 258 257 257 260 262 261 262 261 261 260
307 289 278 269 262 263 260 248 244 244 239 238 238 241 244 248 251 251 251 251 251 252 251 252 252 252 254 256 258 259 259 259 260 260 258 259 261 264 264 264 263 262 262 264
309 293 276 269 266 263 263 261 258 251 245 244 242 241 242 244 247 251 251 250 249 248 249 250 251 253 254 254 256 257 258 259 260 262 263 263 263 262 261 262 261 261 261 263
312 297 286 274 264 261 260 258 258 257 255 251 248 246 244 242 243 241 243 245 246 248 248 248 248 248 250 251 253 255 257 258 259 260 261 261 261 261 259 259 260 261 262 263
321 304 292 277 265 264 257 255 254 254 256 255 253 251 252 252 250 245 240 243 243 243 245 246 247 246 248 249 251 251 254 257 257 258 259 260 260 260 260 260 260 261 262 263
331 315 299 284 273 265 261 252 250 252 254 257 257 255 252 251 252 253 252 246 245 246 247 246 244 244 245 247 249 251 253 251 251 254 255 255 256 257 257 258 259 260 261 261
337 322 309 296 283 269 264 261 254 251 252 253 255 256 257 255 254 254 253 250 249 249 250 250 249 248 246 246 246 249 251 251 248 248 250 252 254 255 255 255 255 255 256 256
338 324 310 294 288 274 265 263 259 253 250 250 253 254 254 255 256 256 255 255 255 255 253 252 251 251 250 250 249 250 251 251 252 252 251 250 253 255 256 255 254 254 255 256
343 329 315 300 292 278 270 264 262 260 254 252 251 253 255 256 255 256 256 256 256 255 254 253 252 252 252 253 254 255 255 254 254 253 253 252 251 252 254 255 255 256 258 256